Location: ???????
(55.5931°N, 39.3286°E)
Time: 09:30:54
(UTC+00:00)

FENGYUN 3A - Pass Details

Date: 14 April 2024
Orbit: 822 x 835 km, 98.6° (Epoch: 19 May)

Event Time Altitude Azimuth Distance (km) Brightness Sun altitude
Rises 00:43:21 0° 14° (NNE) 3,399 7.8 -12.8°
Reaches altitude 10° 00:45:45 10° 11° (N) 2,460 6.9 -12.5°
Maximum altitude 00:51:04 56° 294° (WNW) 986 3.9 -11.9°
Enters shadow 00:55:35 14° 220° (SW) 2,148 5.2 -11.4°
